Miscellaneous Local Product
Issued by NWS North Platte, NE

Home | Current Version | Previous Version | Text Only | Print | Product List | Glossary On
Versions: 1 2 3 4 5 6 7 8 9 10 11 12 13 14 15 16 17 18 19 20 21 22 23 24 25 26 27 28 29 30 31 32 33 34 35 36 37 38 39 40 41 42 43 44 45 46 47 48 49 50
000
AXUS43 KLBF 210710
MISLBF


WESTERN AND NORTH CENTRAL NEBRASKA HOURLY WEATHER ROUNDUP
NATIONAL WEATHER SERVICE NORTH PLATTE NE
100 AM CST SUN DEC 21 2014

***STATIONS NOT REPORTING VARIABLES SUCH AS SKY/WEATHER OR
PRESSURE ARE PROVIDED BY THE NEBRASKA DEPARTMENT OF
ROADS...RAWS...AND APRS NETWORKS...AND ARE NOT UNDER
NATIONAL WEATHER SERVICE QUALITY CONTROL***

...OBSERVATIONS IN AND NEAR THE EASTERN PANHANDLE OF NEBRASKA...

CITY           SKY/WX    TMP DP  RH WIND       PRES   REMARKS
PINE RIDGE     MOCLDY    30  25  81 CALM      29.80F
CHADRON        PTCLDY    25  21  85 SW8       29.81F WCI  16
ALLIANCE       CLOUDY    34  28  79 SW9       29.85F WCI  27
SIDNEY         CLOUDY    28  23  81 NW6       29.87F WCI  22
WHITECLAY        N/A     29  24  78 E9          N/A  WCI  21
CRESCENT LAKE    N/A     34  26  74 W5          N/A  WCI  30
LISCO            N/A     29  24  81 CALM        N/A
BIG SPRINGS      N/A     29  26  88 SW3         N/A
$$

...OBSERVATIONS IN NORTH CENTRAL NEBRASKA...

CITY           SKY/WX    TMP DP  RH WIND       PRES   REMARKS
VALENTINE      MOCLDY    26  24  92 SW6       29.83F WCI  19
THEDFORD       PTCLDY    27  25  91 SW3       29.87F
AINSWORTH      MOCLDY    27  23  84 SW5       29.84F WCI  22
O`NEILL        FOG       29  29 100 S5        29.87F VSB 1/4 WCI  24
BROKEN BOW     PTCLDY    27  24  89 N5        29.88F WCI  22
BROWNLEE         N/A     29  24  82 S3          N/A
SPRINGVIEW       N/A     21  19  93 CALM        N/A
BREWSTER         N/A     25  25  99 W5          N/A  WCI  19
ROSE             N/A     28  28 100 CALM        N/A
SARGENT          N/A     18  17  95 CALM        N/A
COMSTOCK         N/A     33  31  93 W5          N/A  WCI  29
CHAMBERS         N/A     26  26  99 CALM        N/A
EWING            N/A     30  30  99 S3          N/A
$$

...OBSERVATIONS IN SOUTHWEST NEBRASKA AND FAR NORTHEAST COLORADO...

CITY           SKY/WX    TMP DP  RH WIND       PRES   REMARKS
WRAY           CLOUDY    32  28  85 SW7       29.90F WCI  26
HOLYOKE        FAIR      36  30  80 SW6       29.89F WCI  31
IMPERIAL       MOCLDY    35  25  66 SW5       29.89F WCI  31
OGALLALA       CLOUDY    27  26  94 W3        29.88F
NORTH PLATTE   MOCLDY    23  20  88 NW5       29.89F WCI  17
MCCOOK         PTCLDY    30  26  85 W7        29.90F WCI  23
LEXINGTON      CLEAR     26  24  94 W3        29.90F
PAXTON           N/A     28  26  90 CALM        N/A
BRADY            N/A     26  24  91 CALM        N/A
GOTHENBURG       N/A     29  26  87 CALM        N/A
CALLAWAY         N/A     30  27  90 SW5         N/A  WCI  25
$$

...NORTH PLATTE AREA...

CITY           SKY/WX    TMP DP  RH WIND       PRES   REMARKS
AIRPORT        MOCLDY    23  20  88 NW5       29.89F WCI  17
DOWNTOWN         N/A     28  25  87 CALM        N/A
$$

...SOME WEATHER OBSERVATIONS FROM AROUND THE REGION...

CITY           SKY/WX    TMP DP  RH WIND       PRES   REMARKS
DENVER         PTCLDY    32  21  64 SW8       29.89F WCI  25
LARAMIE        PTCLDY    27  19  72 W14       29.87F WCI  16
CHEYENNE       PTCLDY    32  19  58 SW9       29.87F WCI  24
SCOTTSBLUFF    MOCLDY    35  28  75 NW6       29.86F WCI  30
RAPID CITY     MOCLDY    29  24  82 SE5       29.74F WCI  24
PIERRE         CLOUDY    24  21  88 E3        29.80F
WINNER         CLOUDY    34  26  72 S6        29.82F WCI  29
SIOUX FALLS    FOG       30  30 100 S10       29.93F VSB 3/4 WCI  21
OMAHA          CLOUDY    36  35  96 SE10      30.01F FOG     WCI  28
GRAND ISLAND   FOG       29  29 100 S5        29.93F VSB 1/4 WCI  24
KANSAS CITY    PTCLDY    35  33  92 S12       30.09F WCI  27
WICHITA        CLOUDY    43  37  79 S13       30.05F
HAYS           CLEAR     30  21  69 S7        29.97F WCI  23
LIBERAL        PTCLDY    34  28  80 S10       29.96F WCI  26
GOODLAND       CLOUDY    33  28  81 SW7       29.92F WCI  27
$$



USA.gov is the U.S. government's official web portal to all federal, state and local government web resources and services.